Regional Weather Roundup
Issued by NWS Upton, NY

Current Version | Previous Version | Text Only | Print | Product List | Glossary Off
Versions: 1 2 3 4 5 6 7 8 9 10 11 12 13 14 15 16 17 18 19 20 21 22 23 24 25 26 27 28 29 30 31 32 33 34 35 36 37 38 39 40 41 42 43 44 45 46 47 48 49 50
961 ASUS41 KOKX 180609 RWROKX REGIONAL WEATHER ROUNDUP NATIONAL WEATHER SERVICE NEW YORK NY 200 AM EDT FRI AUG 18 2017 NOTE: "FAIR" INDICATES FEW OR NO CLOUDS BELOW 12,000 FEET WITH NO SIGNIFICANT WEATHER AND/OR OBSTRUCTIONS TO VISIBILITY. NYZ071-072-176-178-NJZ106-104-180700- NEW YORK CITY METRO AREA CITY SKY/WX TMP DP RH WIND PRES REMARKS Central Park CLOUDY 76 72 87 S7 29.96F Bronx Bot Gard N/A 75 72 88 E3 29.94F LaGuardia APRT CLOUDY 77 74 90 S10 29.93F Kennedy INTL CLOUDY 76 76 100 S10 29.94F FOG Breezy Point N/A 73 N/A N/A S9 N/A Newark/Liberty CLOUDY 74 73 97 S5 29.92F Teterboro MOCLDY 77 73 87 S8 29.91F $$ NYZ177-179-078>081-180700- LONG ISLAND NEW YORK CITY SKY/WX TMP DP RH WIND PRES REMARKS Jones Beach N/A 73 N/A N/A S8G14 N/A Matinecock PT N/A 72 N/A N/A E3 N/A Farmingdale CLOUDY 75 73 93 S9 29.95F MacArthur/ISP CLOUDY 74 73 97 SE9 29.95F Shirley CLOUDY 74 73 97 SE8 29.97F Mt Sinai Harb N/A N/A N/A N/A S8 N/A Westhampton CLOUDY 72 69 90 CALM 29.99F East Hampton CLOUDY 70 67 91 SE7 29.98S Montauk N/A 70 67 90 CALM 29.99F $$ NYZ052-065-067-180700- HUDSON VALLEY CITY SKY/WX TMP DP RH WIND PRES REMARKS White Plains CLOUDY 70 68 93 SE5 29.94F Larchmont Harb N/A 72 N/A N/A NE7 N/A Croton On Huds N/A 73 N/A N/A E2 N/A Newburgh MOCLDY 72 68 88 VRB6 29.95F Montgomery CLOUDY 69 66 90 N3 29.93F Poughkeepsie CLOUDY 71 65 81 SE6 29.92F Albany CLOUDY 72 61 68 S5 29.90F $$ NJZ001-105-106-008-010-013-015-019>022-104-180700- NEW JERSEY CITY SKY/WX TMP DP RH WIND PRES REMARKS Newark/Liberty CLOUDY 74 73 97 S5 29.92F Teterboro MOCLDY 77 73 87 S8 29.91F Caldwell CLOUDY 73 72 96 CALM 29.93F Somerville CLOUDY 72 71 97 CALM 29.90F FOG Linden FAIR 75 72 88 S3 29.93F Perth Amboy N/A 73 N/A N/A SE2 N/A Sussex CLOUDY 69 68 96 CALM 29.92F Andover N/A 71 69 93 CALM 29.93F Trenton CLOUDY 75 71 87 S8 29.92F Millville PTCLDY 76 74 93 CALM 29.92F Atlantic City PTCLDY 77 73 87 S9 29.93F Wrightstown CLEAR 73 71 91 S6 29.90F Toms River CLEAR 73 71 93 S5 29.94F Belmar MOCLDY 75 71 87 S5 29.94 $$ PAZ047>061-062-071-180700- EASTERN PENNSYLVANIA CITY SKY/WX TMP DP RH WIND PRES REMARKS Philadelphia MOCLDY 76 70 82 SW7 29.92F Allentown CLOUDY 76 69 79 S8 29.91F Scranton CLOUDY 76 70 82 SW5 29.90S $$ CTZ002-004>006-009-010-012-RIZ004-006-007-MAZ004-011-015-180700- SOUTHERN NEW ENGLAND IN CT CITY SKY/WX TMP DP RH WIND PRES REMARKS Bradley INTL CLOUDY 68 60 75 S6 29.97F Hartford CLOUDY 69 62 78 S3 29.96F Danbury CLOUDY 70 67 90 SE6 29.96F Wtrbury/Oxford CLOUDY 67 66 97 S5 29.98F Norwalk Harbor N/A 72 N/A N/A E6 N/A Bridgeport CLOUDY 72 69 90 E5 29.95F Meriden CLOUDY 68 64 87 CALM 29.96F New Haven CLOUDY 72 69 90 SE7 29.97F Chester NOT AVBL Groton CLOUDY 66 63 90 NE6 29.98F Wilimantic CLOUDY 65 61 87 E5 29.99F IN RI CITY SKY/WX TMP DP RH WIND PRES REMARKS Providence CLOUDY 65 61 87 S3 30.00F Block Island MOCLDY 69 65 86 S8 30.00F Westerly CLOUDY 63 60 90 CALM 30.00F IN MA CITY SKY/WX TMP DP RH WIND PRES REMARKS Boston PTCLDY 66 59 78 S7 29.99F Worcester CLOUDY 63 55 75 SW7 30.01F Westfield CLOUDY 68 60 75 SE3 29.97F Provincetown CLOUDY 67 64 90 SW8 30.00F Nantucket CLEAR 59 59 100 S6 30.01F $$ ANZ330-335-338-340-345-350-353-355-180700- COASTAL MARINE OBSERVATIONS STATION/POSITION TIME SKY/WX TEMP WIND PRES VSBY WAVE AIR SEA DIR/SP/G HT/PER (UTC) (F) (DEG/KT/KT) (MB) (MI) (FT/S) NY HARB ENTRANCE 0550 76 75 180/ 14/ 16 1013.2 2/ 8 GREAT SOUTH BAY 0515 74 78 160/ 8/ 10 N/A 23 SSW MONTAUK P 0550 71 72 1015.6 2/ 8 15 E BARNEGAT LI 0530 76 N/A 3/ 7 HUDSON CANYON 0550 75 75 180/ 10/ 10 1014.5 2/ 8 KINGS POINT 0536 75 190/ 9/ 10 1013.6 EXECUTION ROCKS NOT AVBL WESTERN LI SOUND NOT AVBL CENTRAL LI SOUND NOT AVBL EASTERN LI SOUND NOT AVBL ROBBINS REEF 0542 150/ 9/ 11 1014.1 $$ >>>>>>>>>>>>>>>>>>>>>>>>>>>> KEY <<<<<<<<<<<<<<<<<<<<<<<<<<< > < > SKY/WX - Sky Condition/Present Weather < > TMP - Temperature in Fahrenheit < > DP - Dew Point in Fahrenheit < > RH - Relative Humidity in Percent < > WIND - Direction (from) and Speed in MPH < > PRES - Mean Sea Level Pressure (inches of Hg) < > WCI - Wind Chill Index < > VSB - VISIBILITY IN MILES < > HX - HEAT INDEX < > TC - TEMPERATURE IN CELSIUS < > VRB - VARIABLE WIND DIRECTION < > < >>>>>>>>>>>>>>>>>>>>>>>>>>>> KEY <<<<<<<<<<<<<<<<<<<<<<<<<<<

USA.gov is the U.S. government's official web portal to all federal, state and local government web resources and services.